Dewpoint
55 55 55 56 57 57 57 57 57 57 57 57 58 58 58 59 59 56 38 38 49 72 69 60 56 53 58 60 63 58 51 50 47 41 41 44 44 48 49 50 54 56 57 58 60
55 55 56 55 56 56 56 57 57 57 57 57 57 58 58 59 54 38 50 68 69 72 61 55 56 55 57 56 55 52 47 47 48 44 42 44 42 44 46 50 55 58 58 59 59
55 55 55 56 55 56 56 56 56 56 56 56 57 58 58 59 33 29 73 71 72 69 51 51 51 53 51 48 42 44 45 41 34 39 42 44 46 45 45 48 54 56 57 58 59
54 54 54 54 55 56 56 56 56 56 56 56 57 58 59 53 1 51 72 72 72 61 52 41 42 48 46 45 42 33 29 26 27 31 38 45 48 47 46 46 55 58 58 58 58
54 54 54 54 55 55 55 55 55 55 55 56 57 58 48 24 28 59 73 70 62 58 50 41 47 48 45 43 35 30 25 24 22 26 28 49 49 46 47 49 56 58 58 58 58
54 54 54 54 54 54 54 54 54 54 55 56 57 58 49 24 24 65 61 61 55 53 47 44 50 50 45 40 35 30 23 19 20 25 27 36 35 45 48 50 55 56 57 58 58
53 54 54 54 54 54 54 53 53 53 54 56 56 54 44 14 27 56 57 54 54 51 44 48 47 50 42 37 32 21 18 19 19 25 25 25 26 33 48 49 54 55 56 58 59
52 53 53 54 54 53 53 52 52 54 55 56 57 53 36 31 24 22 43 51 50 49 44 44 47 40 32 26 20 20 20 18 20 23 23 26 23 38 49 50 52 54 55 57 59
52 52 52 53 53 52 52 51 53 54 57 59 54 45 27 38 32 25 24 39 48 45 43 41 40 36 27 19 18 20 18 19 19 21 22 23 32 38 46 50 52 52 54 56 57
53 52 52 52 52 51 51 52 52 54 52 52 45 28 25 15 30 24 21 32 45 44 42 40 36 29 20 18 15 17 17 18 19 18 18 24 33 37 41 49 51 52 53 54 55
53 52 52 51 51 50 48 41 28 18 20 19 20 26 25 23 21 24 23 25 38 41 38 38 34 29 24 18 18 19 18 18 18 18 19 16 24 36 39 43 48 51 52 53 54
53 52 52 51 50 50 47 35 34 26 19 20 20 19 18 18 16 18 21 21 25 34 36 35 32 33 28 21 17 16 15 15 15 15 18 17 17 21 27 36 37 45 50 52 53
53 52 52 51 49 40 28 25 27 26 15 15 16 16 16 16 15 16 19 20 17 18 27 30 32 32 25 22 17 16 14 14 13 14 16 20 16 16 19 24 25 32 45 51 53
53 52 51 50 31 38 29 29 29 28 16 17 16 17 16 17 15 16 17 19 14 10 22 26 30 25 22 20 18 15 16 14 12 13 12 15 12 16 15 18 25 27 47 50 52
52 52 51 50 39 37 25 30 32 21 15 21 19 19 16 15 16 16 16 13 13 13 17 17 21 17 18 18 17 15 15 13 13 12 12 11 11 15 20 19 33 38 43 51 52
52 51 50 43 42 41 36 37 23 17 16 19 19 18 16 17 16 16 14 13 16 14 17 14 17 15 14 14 16 18 17 16 16 11 7 10 13 10 15 19 34 40 51 52 52
51 50 48 42 31 30 36 26 17 14 18 17 18 17 15 17 14 16 15 13 9 14 16 16 14 16 16 17 17 21 12 11 11 8 10 10 13 13 17 24 36 39 50 53 53
50 48 46 44 43 40 32 20 15 18 19 20 18 16 17 17 18 14 13 12 9 16 15 14 13 13 14 16 15 16 11 12 6 9 11 15 14 14 22 20 32 39 42 43 50
48 38 34 35 41 37 27 20 18 21 20 17 16 16 14 16 18 20 20 13 8 9 11 13 11 15 13 13 16 14 14 13 10 14 11 14 12 25 34 34 36 35 41 49 57
43 39 35 37 39 33 23 24 18 19 17 17 15 17 12 15 16 17 20 24 22 20 26 22 17 13 13 14 13 15 16 10 13 14 9 16 18 28 38 37 44 46 52 59 61
40 30 28 36 37 31 23 21 20 21 21 17 14 12 14 17 16 14 18 19 22 24 25 26 23 20 19 16 14 15 15 14 11 15 11 14 22 35 47 49 51 54 63 63 66
32 22 29 36 31 32 28 26 29 21 22 17 15 16 19 15 13 18 19 21 19 25 27 33 25 19 16 16 17 14 13 14 11 9 20 19 19 48 42 54 55 58 63 67 68
30 29 28 31 23 21 25 28 29 23 22 16 13 20 20 18 14 17 21 17 18 25 26 31 27 23 11 12 16 13 18 19 16 16 12 15 23 52 54 57 59 61 63 65 66
31 26 30 32 31 32 33 31 32 35 32 32 23 16 21 23 22 18 20 20 18 20 51 40 32 30 27 21 18 18 19 20 18 14 14 17 29 49 52 55 56 61 64 64 66
35 31 27 25 24 24 27 29 35 35 36 34 31 31 29 26 26 29 33 34 27 36 27 38 30 37 34 34 32 22 20 22 22 21 17 16 39 49 53 53 55 62 63 64 65
31 29 30 27 26 23 29 35 35 37 37 35 33 33 26 28 33 36 34 34 22 28 32 40 31 37 30 35 34 30 40 35 47 49 47 38 46 52 52 51 56 59 61 64 64
37 36 31 31 23 22 24 26 31 35 37 36 36 34 32 38 41 42 42 38 35 28 22 37 35 32 26 35 36 39 43 46 49 51 51 44 50 56 59 54 58 50 51 64 65
Lifted_Index
19 18 18 18 18 18 17 17 17 17 16 16 15 15 14 13 12 10 9 8 7 4 2 2 0 -2 -4 -4 -4 -4 -4 -3 -3 -2 -2 -2 -1 -1 -1 -2 -3 -3 -2 -2 -2
19 19 18 18 18 18 17 17 17 16 16 16 15 15 14 13 11 9 8 8 6 4 3 2 0 -2 -3 -4 -3 -3 -3 -3 -2 -2 -2 -2 -1 -1 -1 -2 -3 -3 -3 -2 -2
19 18 18 18 18 17 17 17 17 16 16 16 15 15 14 12 9 7 6 6 5 5 4 4 2 -1 -2 -2 -2 -1 -1 -1 -1 -1 -2 -2 -2 -1 -1 -2 -2 -3 -3 -3 -3
18 18 18 18 17 17 16 16 16 16 16 16 15 15 14 11 8 6 5 4 4 5 6 5 3 1 -1 -1 -0 1 2 1 0 -0 -1 -2 -2 -2 -1 -1 -2 -3 -3 -3 -3
19 18 18 17 17 16 16 15 15 15 16 16 15 15 13 10 8 5 4 4 5 6 7 6 4 1 0 0 1 3 3 3 2 1 -1 -1 -2 -2 -2 -1 -2 -3 -3 -3 -3
19 19 19 18 17 16 15 14 14 15 15 15 15 14 12 10 8 6 4 5 6 6 7 6 3 1 1 2 3 4 4 4 3 1 0 -1 -1 -2 -2 -2 -3 -3 -3 -3 -3
20 20 19 19 18 17 16 15 14 14 15 15 15 14 11 9 9 7 6 6 6 6 6 5 3 2 2 3 4 4 4 4 2 1 0 -0 -0 -1 -2 -2 -2 -3 -3 -3 -3
19 19 19 19 19 18 17 16 14 14 14 15 14 13 11 10 9 8 7 5 5 5 5 5 4 3 4 4 4 4 4 2 1 1 0 0 -0 -1 -2 -2 -2 -2 -2 -3 -3
17 17 18 18 19 19 18 16 14 14 14 14 14 13 12 10 9 8 7 5 4 3 4 4 4 4 5 5 4 3 3 2 1 0 1 0 -0 -1 -2 -2 -3 -2 -2 -2 -2
15 15 15 16 17 18 17 16 14 14 13 13 13 13 12 10 9 8 7 6 3 2 3 3 3 4 4 4 3 3 2 1 1 1 1 0 -0 -1 -1 -2 -3 -3 -2 -2 -2
14 14 14 15 17 18 17 15 15 14 13 13 13 12 12 11 10 8 7 6 3 2 2 2 3 3 4 4 3 3 2 2 1 1 1 0 -0 -0 -1 -1 -2 -2 -2 -2 -2
14 14 14 15 17 18 17 15 15 15 13 12 12 12 12 11 10 8 6 5 4 3 2 2 2 3 3 3 3 3 2 2 2 1 1 0 0 -0 -1 -1 -1 -1 -2 -2 -2
14 14 14 16 17 18 16 16 16 15 13 11 11 11 11 10 9 7 5 4 3 3 2 2 2 2 2 3 3 3 2 2 1 1 1 0 0 -0 -0 -0 -0 -1 -1 -2 -2
14 14 14 16 17 18 17 16 16 14 11 9 9 9 8 8 7 5 4 3 2 2 2 2 1 1 2 2 3 2 1 1 1 1 1 1 1 0 0 0 0 -0 -1 -2 -2
14 14 14 15 17 17 17 16 15 12 7 7 7 7 6 5 4 4 3 2 2 2 1 1 1 1 1 2 2 2 1 0 0 0 0 1 1 1 1 1 1 0 -1 -2 -2
14 14 14 16 17 17 17 15 13 9 6 6 6 4 3 2 2 2 2 2 1 1 1 1 1 1 1 1 1 1 1 0 -0 -0 0 1 1 1 1 1 1 0 -1 -2 -2
13 14 15 17 17 17 16 13 10 8 6 5 4 3 3 2 2 2 1 1 1 1 1 1 1 1 1 1 1 1 0 -0 -0 -0 0 1 1 0 1 1 1 0 -2 -3 -3
13 14 16 16 16 16 14 11 8 7 7 5 4 3 2 2 2 1 1 1 0 0 0 0 1 1 1 1 1 1 0 -0 -0 -0 0 1 1 0 1 1 1 -0 -1 -3 -3
13 14 15 15 15 14 12 9 8 7 6 5 4 3 2 2 2 1 1 1 1 0 0 0 0 0 0 1 1 0 0 -0 -0 -1 -0 1 1 1 1 0 0 0 -1 -2 -3
13 13 13 13 13 12 11 9 8 7 6 5 4 3 3 2 2 1 1 1 1 1 0 0 0 0 0 0 0 -0 -0 -0 -0 -1 -0 0 0 -0 -0 -0 -0 -1 -2 -4 -5
12 12 12 11 11 10 9 8 7 6 5 5 4 4 4 3 2 2 2 2 1 1 0 0 1 1 0 -0 -0 -0 -1 -1 -1 -1 -0 -0 -0 -1 -2 -2 -2 -4 -5 -7 -7
12 12 11 10 9 9 8 7 6 5 4 4 4 4 4 4 3 2 2 2 2 1 1 0 0 1 0 0 -0 -1 -1 -1 -1 -1 -1 -1 -1 -2 -3 -4 -4 -6 -8 -9 -9
12 11 10 9 8 7 6 5 4 3 3 3 3 4 4 4 3 3 2 2 2 2 1 0 0 0 1 0 0 -1 -1 -1 -1 -1 -1 -1 -1 -3 -4 -5 -6 -7 -8 -9 -9
11 10 9 9 8 7 5 4 3 2 2 2 2 3 3 3 3 3 2 2 2 2 1 1 1 1 1 0 -0 -1 -1 -1 -0 -1 -1 -0 -1 -3 -5 -6 -6 -7 -7 -8 -8
11 9 8 8 7 6 5 4 3 2 1 1 1 2 2 2 2 2 2 1 1 2 2 1 1 1 0 0 -0 -1 -1 -1 -1 -1 -1 -1 -1 -2 -4 -5 -6 -6 -6 -7 -7
10 9 9 8 7 6 5 4 3 2 1 1 2 2 2 2 2 2 1 1 0 1 2 1 1 1 0 -0 -0 -1 -1 -1 -2 -2 -2 -1 -1 -3 -4 -4 -4 -4 -5 -6 -7
10 10 9 9 8 7 6 4 3 2 1 1 2 2 2 2 2 2 1 0 0 1 1 1 1 1 0 -0 -1 -1 -2 -2 -3 -3 -2 -2 -2 -3 -4 -4 -4 -4 -5 -6 -6